User: anonymous   Login
Location: Sperry Observatory
(40.6664°N, 74.3236°W)
Time: 13:52:49
(UTC-04:00)
Language:

JAS-2 - Orbit

View from above orbital plane
View from above orbital plane
View from above satellite
View from above satellite

Ground track
Ground track

The orbit data is extracted from the following two-line orbital elements,

1 24278U 96046B   14303.49522175  .00000031  00000-0  70283-4 0  5066
2 24278 098.5161 298.6871 0349525 306.6531 223.4854 13.53034466898961
Epoch (UTC): 30 October 2014 11:53:07
Eccentricity: 0.0349525
inclination: 98.5161°
perigee height: 801 km
apogee height: 1321 km
right ascension of ascending node: 298.6871°
argument of perigee: 306.6531°
revolutions per day: 13.53034466
mean anomaly at epoch: 223.4854°
orbit number at epoch: 89896

The dashed part of the orbit path shows where the satellite is in the earth's shadow,  

DLR